STARLINK-2220 (48570 NORAD) Tracking and Keplerian Element Data

This shows tracking and keplerian element data for the satellite.

Feedback or suggestion? Click here.




ElementValue
Catalog48570
NameSTARLINK-2220
Epoch Orbit358
Epoch Day214.91667824
Epoch Year2021
RAAN122.4124
Inclination53.0532
Eccentricity0.0001593
Argument of Perigee83.6845
Mean Anonmoly290.2291
Mean Motion15.06396957
Decay Rate-0.00032672
L11 48570U 21041T 21214.91667824 -.00032672 00000-0 -21847-2 0 9991
L22 48570 53.0532 122.4124 0001593 83.6845 290.2291 15.06396957 3584

Live tracking and technical data element details for STARLINK-2220 (NORAD 48570). STARLINK-2220 can be tracked NOW for your location showing map with azimuth and elevation plus other details from your city location.

Track the satellite on the map from your city or location and see movement details for azimuth, elevation, latitude, longitude, range, height, and movement on the map or in text.







IsCatalogInMostPopularTable: catalog: 48570, numindb: 22
Update: records affected: 1



GetName: 48570 STARLINK-2220

Hit Count: updated at: Tue, 03 Aug 2021 23:48:28 GMT